Wind_Speed
24 25 25 24 24 22 21 21 18 18 16 15 14 14 12 11 10 10 10 10 10 11 9 9 9 9 10 10 10 9 9 9
25 27 25 27 25 26 22 21 20 19 17 17 17 17 14 12 11 13 12 12 12 11 10 10 9 8 10 11 11 13 11 11
29 27 28 28 29 30 26 22 22 22 19 18 17 16 16 15 14 14 14 13 13 12 12 11 10 10 11 13 13 12 11 12
30 32 33 30 31 30 27 24 24 24 21 21 19 17 17 17 18 17 16 15 14 13 12 11 11 10 11 11 12 12 11 11
30 32 36 34 32 31 30 29 30 30 28 26 26 24 22 19 19 18 18 17 16 14 13 12 12 11 11 12 13 12 9 9
30 35 36 37 33 34 36 35 34 31 30 28 29 25 21 19 18 20 20 19 17 16 15 14 13 12 12 12 13 12 10 9
25 29 37 42 42 37 36 34 33 31 33 35 31 31 25 23 23 23 23 22 20 19 16 14 13 13 12 12 12 12 12 12
20 27 32 38 45 44 45 38 38 36 37 38 36 31 29 28 29 27 25 25 24 21 19 17 15 15 14 14 13 13 13 14
13 22 32 35 41 46 47 47 42 40 40 39 35 31 31 29 30 27 29 26 24 22 20 18 17 17 17 14 14 15 15 16
12 15 27 34 39 46 48 48 43 42 43 39 37 35 33 33 29 31 29 27 25 25 22 21 20 17 15 15 16 16 17 16
18 16 19 30 38 45 40 51 47 43 43 44 43 40 39 34 32 34 30 31 28 29 27 26 22 19 19 17 17 18 18 16
21 21 19 23 32 39 41 50 50 48 47 48 45 43 40 38 35 33 34 34 33 32 30 27 24 24 22 22 21 22 20 19
22 20 22 21 28 31 38 47 53 53 52 47 49 47 44 40 40 36 36 38 36 35 33 30 28 28 26 27 26 25 23 23
24 18 18 21 25 29 40 48 50 51 50 52 46 47 42 43 44 41 34 36 36 37 36 34 32 32 31 31 30 28 27 27
29 18 19 23 25 27 35 42 45 48 47 47 45 45 45 43 43 40 37 36 37 39 40 37 36 36 36 35 34 31 29 32
29 26 21 24 27 28 28 32 39 46 47 48 48 46 46 43 41 42 38 38 40 42 37 40 40 40 40 36 34 38 36 34
30 30 21 25 29 29 29 28 34 35 48 47 45 44 46 47 41 41 40 41 45 45 39 40 42 41 39 37 42 39 38 37
30 31 26 25 29 29 30 28 28 34 41 41 41 41 40 41 43 41 43 42 45 46 41 42 42 40 42 42 41 39 41 40
35 31 28 25 28 28 29 27 29 31 34 33 32 35 38 38 39 43 43 45 46 42 42 43 43 46 45 42 41 37 40 44
Wind_Direction
201 203 200 196 196 206 197 199 198 190 193 183 182 187 181 183 184 198 197 192 181 164 178 168 158 159 161 163 168 163 162 155
210 202 201 199 194 202 195 196 196 190 193 188 189 187 186 183 186 206 198 192 184 173 174 173 163 161 168 167 162 165 168 163
214 205 203 200 199 201 197 199 198 194 195 193 195 189 191 190 198 201 198 194 185 179 180 177 167 175 171 168 165 170 179 175
217 210 206 204 206 204 202 201 206 200 196 192 190 188 192 191 202 202 199 192 189 190 185 182 176 170 172 176 175 179 187 201
226 216 215 208 210 207 208 209 208 211 197 199 192 193 193 200 201 200 200 194 194 193 190 189 184 177 188 189 189 191 195 211
224 223 218 221 213 212 215 216 216 215 202 198 199 195 197 198 194 200 201 200 196 196 194 193 193 192 199 196 203 194 209 206
229 222 221 228 225 218 215 213 210 209 207 200 206 200 193 194 195 201 203 204 201 200 199 196 198 205 206 207 212 215 213 219
222 218 217 221 228 224 223 214 212 211 209 206 206 206 194 199 204 204 203 206 206 205 204 201 204 208 210 212 217 222 224 230
248 228 217 218 224 230 229 218 214 210 211 208 207 204 201 201 210 206 210 212 211 212 211 209 211 212 214 217 223 226 230 231
271 245 219 217 222 231 228 214 214 207 212 210 207 208 204 206 208 209 213 214 212 218 216 217 220 222 223 224 233 236 235 231
298 256 243 221 223 233 230 223 215 207 209 213 211 212 209 207 208 215 210 217 213 221 219 222 223 227 229 233 237 239 242 243
288 285 257 237 228 226 232 224 219 207 206 214 214 214 214 206 213 214 212 218 219 225 225 226 228 232 236 240 239 239 245 244
289 279 263 237 215 215 223 225 219 215 217 222 225 217 214 212 212 212 220 220 225 227 229 228 235 238 243 243 242 245 248 243
296 277 254 227 223 220 225 224 225 220 219 216 211 214 212 215 217 216 218 223 226 225 231 232 238 241 242 246 246 247 249 250
289 272 255 235 224 219 224 227 229 228 225 210 212 215 216 216 219 220 218 224 227 231 233 239 244 245 244 249 249 247 258 256
282 277 254 242 230 219 219 228 227 226 219 214 216 220 221 220 222 223 221 223 231 238 235 239 244 242 245 252 255 249 253 253
281 283 254 240 233 226 217 216 226 219 213 217 216 216 224 221 220 226 226 227 234 240 240 242 244 247 250 255 254 252 252 254
287 283 272 242 231 224 221 213 213 216 214 211 214 217 221 225 221 222 228 227 230 243 243 244 247 247 251 253 256 256 254 256
287 277 273 254 232 222 217 207 205 209 211 213 212 215 217 226 225 226 228 231 238 242 247 248 247 247 251 252 257 260 255 254
Height
1530 1534 1535 1537 1543 1543 1547 1548 1552 1556 1557 1559 1560 1562 1566 1567 1569 1569 1569 1570 1572 1573 1574 1575 1576 1577 1579 1582 1585 1587 1588 1588
1526 1527 1531 1535 1539 1540 1544 1547 1549 1552 1555 1557 1559 1559 1562 1565 1566 1565 1567 1568 1569 1571 1573 1575 1576 1576 1579 1580 1582 1583 1585 1586
1520 1523 1528 1529 1532 1533 1536 1541 1544 1547 1552 1555 1558 1559 1559 1561 1562 1564 1565 1566 1568 1569 1571 1572 1574 1575 1576 1577 1580 1583 1584 1584
1514 1518 1520 1523 1526 1528 1533 1536 1540 1542 1546 1550 1553 1556 1558 1558 1558 1560 1562 1563 1565 1567 1568 1570 1572 1573 1574 1576 1577 1580 1582 1582
1511 1512 1513 1516 1521 1524 1525 1529 1532 1534 1538 1545 1546 1547 1551 1554 1555 1557 1559 1561 1562 1564 1566 1568 1569 1571 1572 1574 1575 1578 1581 1582
1499 1505 1509 1511 1515 1515 1518 1522 1526 1529 1535 1539 1541 1543 1547 1551 1554 1554 1556 1558 1560 1561 1562 1564 1567 1568 1569 1571 1573 1575 1577 1580
1491 1497 1500 1502 1506 1512 1513 1518 1521 1526 1528 1531 1536 1537 1541 1546 1549 1550 1552 1554 1556 1558 1559 1561 1563 1565 1566 1568 1570 1572 1573 1574
1481 1488 1493 1493 1495 1500 1505 1509 1513 1517 1522 1524 1527 1532 1536 1540 1542 1544 1547 1549 1551 1553 1555 1557 1559 1561 1562 1564 1566 1567 1568 1569
1473 1478 1483 1485 1487 1489 1494 1498 1504 1510 1514 1519 1524 1527 1531 1534 1536 1540 1542 1545 1547 1549 1552 1554 1556 1557 1558 1560 1562 1563 1562 1563
1469 1471 1474 1478 1479 1479 1485 1490 1494 1501 1506 1513 1517 1521 1524 1527 1531 1535 1538 1540 1542 1544 1548 1550 1551 1553 1556 1556 1558 1559 1558 1559
1464 1465 1468 1469 1470 1470 1478 1482 1486 1493 1498 1504 1506 1513 1518 1522 1526 1528 1532 1534 1537 1537 1541 1543 1546 1548 1549 1551 1553 1554 1555 1556
1462 1460 1461 1463 1463 1463 1469 1473 1478 1482 1487 1492 1498 1504 1510 1515 1519 1522 1525 1528 1530 1532 1535 1538 1541 1543 1545 1546 1547 1548 1549 1550
1456 1456 1455 1457 1457 1460 1460 1464 1469 1472 1478 1487 1489 1496 1502 1507 1511 1515 1518 1520 1523 1526 1528 1532 1535 1537 1539 1540 1542 1544 1545 1545
1449 1450 1451 1452 1454 1454 1453 1456 1461 1466 1472 1475 1482 1487 1494 1499 1503 1508 1512 1515 1517 1520 1521 1524 1527 1530 1532 1534 1535 1537 1539 1540
1444 1443 1447 1448 1448 1448 1447 1450 1455 1461 1465 1469 1474 1480 1485 1492 1497 1502 1506 1509 1510 1511 1514 1518 1521 1522 1524 1526 1528 1530 1531 1534
1436 1435 1439 1443 1444 1444 1443 1445 1446 1451 1456 1460 1464 1471 1477 1485 1490 1494 1498 1501 1502 1502 1507 1510 1512 1514 1515 1517 1519 1522 1523 1524
1429 1428 1429 1434 1437 1440 1440 1440 1442 1444 1448 1450 1459 1464 1469 1475 1482 1485 1488 1491 1491 1493 1499 1501 1503 1505 1507 1509 1511 1512 1514 1516
1422 1422 1421 1423 1427 1431 1433 1434 1438 1440 1445 1447 1451 1458 1461 1468 1475 1479 1481 1483 1484 1484 1489 1491 1493 1496 1497 1500 1503 1503 1505 1507
1415 1415 1414 1415 1418 1422 1425 1427 1431 1434 1440 1444 1447 1452 1456 1459 1464 1469 1472 1473 1474 1477 1480 1483 1484 1485 1487 1492 1493 1494 1494 1495